This demonstration page uses our WeatherBlox Daily Observations layout. Learn more.

Left ArrowRight Arrow

39.01783, -85.05884

Hourly Observations for February 14, 2016

Temp ( °F °C ) Dew Point ( °F °C ) Humidity (%) Winds ( mph kmh ) Pressure ( in mb ) Visibility ( mi km ) Precip ( " mm )
12:52 am 00:52 Mostly Cloudy 11 -11.7 6 -14.4 81 81 N N/A 30.50 1033 10 16 N/A
1:52 am 01:52 Mostly Cloudy 14 -10 6 -14.4 71 71 NE 7 11 30.49 1033 10 16 N/A
2:52 am 02:52 Cloudy 14 -10 6 -14.4 71 71 E 6 9 30.48 1032 10 16 N/A
3:52 am 03:52 Cloudy 13 -10.6 3 -16.1 64 64 E 9 15 30.49 1032 10 16 N/A
4:52 am 04:52 Cloudy 13 -10.6 3 -16.1 64 64 E 7 11 30.48 1032 10 16 N/A
5:52 am 05:52 Cloudy 13 -10.6 3 -16.1 64 64 ESE 9 15 30.49 1033 10 16 N/A
6:52 am 06:52 Cloudy 14 -10 3 -16.1 61 61 E 8 13 30.48 1032 10 16 N/A
7:52 am 07:52 Cloudy 14 -10 4 -15.6 64 64 SE 9 15 30.47 1032 10 16 N/A
8:52 am 08:52 Cloudy 15 -9.4 5 -15 64 64 ESE 10 17 30.46 1032 10 16 N/A
9:52 am 09:52 Cloudy 17 -8.3 6 -14.4 62 62 SE 10 17 30.44 1031 10 16 N/A
10:52 am 10:52 Cloudy 18 -7.8 5 -15 57 57 SE 15 24 30.41 1030 10 16 N/A
11:52 am 11:52 Cloudy 18 -7.8 5 -15 57 57 SE 12 19 30.39 1029 10 16 N/A
12:52 pm 12:52 Cloudy 19 -7.2 6 -14.4 57 57 SE 13 20 30.33 1027 10 16 N/A
1:33 pm 13:33 Cloudy with Light Snow 19 -7 9 -13 63 63 E 16 26 30.33 1027 2 3 N/A
1:52 pm 13:52 Cloudy with Light Snow 19 -7.2 10 -12.2 68 68 ESE 16 26 30.28 1026 2 3 N/A
2:15 pm 14:15 Cloudy with Light Snow 19 -7 10 -12 68 68 ESE 14 22 30.33 1027 2 3 N/A
2:52 pm 14:52 Cloudy with Light Snow 18 -7.8 11 -11.7 74 74 SE 12 19 30.29 1026 2 3 N/A
3:04 pm 15:04 Cloudy with Light Snow 18 -8 12 -11 79 79 ESE 10 17 30.33 1027 1 1 N/A
3:24 pm 15:24 Cloudy with Snow 18 -8 12 -11 79 79 ESE 10 17 30.30 1026 1 1 N/A
3:37 pm 15:37 Mostly Cloudy with Snow 18 -8 14 -10 86 86 E 12 19 30.30 1026 0 0 0.02 0.51
3:41 pm 15:41 Mostly Cloudy with Heavy Snow 18 -8 14 -10 86 86 E 12 19 30.30 1026 0 0 0.03 0.76
3:52 pm 15:52 Mostly Cloudy with Heavy Snow 18 -7.8 14 -10 84 84 ESE 14 22 30.21 1023 0 0 0.03 0.76
4:19 pm 16:19 Mostly Cloudy with Snow 18 -8 14 -10 86 86 ESE 14 22 30.27 1025 0 0 0.01 0.25
4:52 pm 16:52 Cloudy with Heavy Snow 18 -7.8 14 -10 84 84 ESE 10 17 30.22 1024 0 0 0.04 1.02
5:33 pm 17:33 Mostly Cloudy with Snow 18 -8 14 -10 86 86 ESE 13 20 30.21 1023 0 0 0.03 0.76
5:52 pm 17:52 Mostly Cloudy with Light Snow 18 -7.8 14 -10 84 84 ESE 10 17 30.18 1022 1 1 0.04 1.02
6:30 pm 18:30 Mostly Cloudy with Light Snow 18 -8 14 -10 86 86 E 9 15 30.24 1024 1 2 0.04 1.02
6:50 pm 18:50 Cloudy with Light Snow 18 -8 14 -10 86 86 ESE 10 17 30.24 1024 2 3 0.05 1.27
6:51 pm 18:51 Cloudy with Light Snow 18 -8 14 -10 86 86 E 10 17 30.24 1024 2 3 N/A
6:59 pm 18:59 Cloudy with Light Snow 18 -8 14 -10 86 86 E 10 17 30.24 1024 5 8 N/A
7:52 pm 19:52 Cloudy with Light Snow 18 -7.8 15 -9.4 88 88 E 10 17 30.17 1022 5 8 N/A
8:16 pm 20:16 Cloudy 18 -8 14 -10 86 86 ESE 10 17 30.21 1023 10 16 0.01 0.25
8:52 pm 20:52 Cloudy 19 -7.2 15 -9.4 84 84 ESE 10 17 30.15 1021 10 16 0.01 0.25
9:52 pm 21:52 Cloudy 19 -7.2 15 -9.4 84 84 ESE 10 17 30.14 1021 10 16 N/A
10:52 pm 22:52 Cloudy 20 -6.7 16 -8.9 85 85 SE 9 15 30.13 1020 10 16 N/A
11:33 pm 23:33 Cloudy 21 -6 18 -8 86 86 SE 10 17 30.15 1021 10 16 N/A
11:52 pm 23:52 Cloudy 21 -6.1 17 -8.3 85 85 SE 14 22 30.11 1020 10 16 N/A

Powered by AerisWeather